Date,TemperatureHighF,TemperatureAvgF,TemperatureLowF,DewpointHighF,DewpointAvgF,DewpointLowF,HumidityHigh,HumidityAvg,HumidityLow,PressureMaxIn,PressureMinIn,WindSpeedMaxMPH,WindSpeedAvgMPH,GustSpeedMaxMPH,PrecipitationSumIn
2013-10-1,86.0,65.7,52.0,62.8,55.1,46.4,91,70,44,29.96,29.82,0,0,0,0.00
2013-10-2,90.9,62.3,43.6,53.7,45.0,40.2,91,60,22,30.10,29.96,0,0,0,0.00
2013-10-3,84.8,65.1,53.6,67.7,57.9,41.2,90,78,56,29.96,29.81,0,0,0,0.00
2013-10-4,67.1,63.6,59.9,64.3,60.9,57.5,93,91,88,29.99,29.85,0,0,0,0.46
2013-10-5,76.5,64.7,58.0,71.8,62.0,48.2,94,91,71,29.93,29.73,0,0,0,0.29
2013-10-6,61.2,50.3,40.3,47.7,41.0,36.5,89,72,48,29.76,29.66,0,0,0,0.04
2013-10-7,70.6,51.7,40.1,48.4,42.4,35.8,91,73,40,30.05,29.71,0,0,0,0.03
2013-10-8,83.7,55.8,36.4,54.0,42.5,33.1,90,66,28,30.13,30.05,0,0,0,0.00
2013-10-9,84.1,57.6,43.0,52.0,43.4,37.4,87,64,25,30.19,30.10,0,0,0,0.00
2013-10-10,86.8,55.7,37.4,55.3,43.9,33.8,89,69,30,30.15,30.02,0,0,0,0.00
2013-10-11,81.7,59.7,43.9,60.2,50.1,40.6,91,73,45,30.03,29.89,0,0,0,0.00
2013-10-12,74.7,59.9,40.3,59.2,48.5,34.3,90,68,35,30.14,29.87,0,0,0,0.08
2013-10-13,65.3,45.5,32.0,41.9,34.2,28.4,88,68,34,30.38,30.13,0,0,0,0.00
2013-10-14,68.6,44.2,29.7,45.7,36.0,26.3,91,75,42,30.39,30.11,0,0,0,0.00
2013-10-15,61.4,50.5,44.8,55.4,45.6,39.7,92,84,72,30.09,29.72,0,0,0,0.27
2013-10-16,50.6,47.8,45.5,44.6,43.5,41.3,91,85,75,29.91,29.76,0,0,0,0.02
2013-10-17,59.4,45.0,34.2,45.1,39.7,30.6,99,82,52,29.90,29.78,0,0,0,0.17
2013-10-18,47.9,41.6,32.4,41.8,36.4,29.4,99,82,68,29.92,29.77,0,0,0,0.00
2013-10-19,57.2,40.5,28.4,48.0,35.6,12.0,99,85,32,29.89,29.69,0,0,0,0.04
2013-10-20,60.1,45.0,32.0,58.4,43.8,31.8,99,95,71,29.80,29.67,0,0,0,0.11
2013-10-21,131.4,52.1,39.2,95.4,38.7,-33.8,99,71,1,29.92,29.71,0,0,0,0.01
2013-10-22,137.5,71.6,34.0,95.6,43.6,-27.5,99,51,1,29.93,29.87,0,0,0,0.00
2013-10-23,49.5,35.0,26.5,29.6,26.3,22.3,87,72,43,29.99,29.91,0,0,0,0.00
2013-10-24,48.8,36.4,28.6,29.6,25.7,22.5,81,66,44,30.25,29.99,0,0,0,0.00
2013-10-25,56.2,40.0,27.4,33.2,26.9,21.6,84,62,38,30.31,29.95,0,0,0,0.00
2013-10-26,50.0,42.7,40.0,34.0,27.7,25.8,58,55,53,30.04,29.85,0,0,0,0.00
2013-10-27,59.2,41.4,24.1,33.8,27.8,19.4,82,60,35,30.03,29.87,0,0,0,0.00
2013-10-28,44.3,39.6,31.9,32.4,30.4,23.9,85,70,61,30.37,30.00,0,0,0,0.00
2013-10-29,55.6,43.7,35.5,42.2,35.6,27.8,86,73,58,30.36,30.09,0,0,0,0.00
2013-10-30,56.3,50.3,44.5,53.8,46.9,39.6,92,88,82,30.09,29.71,0,0,0,0.00
2013-10-31,61.2,54.9,43.4,59.5,52.7,39.2,94,92,86,29.71,29.24,0,0,0,1.03